Date String (YYYY-MM-DD hh:mm:ss) UTC,Instrument flags,Ambient pressure (hPa),Sample flow (lpm),Bypass flow (lpm),Sample temperature (°C),Ambient temperature (°C),ASC tube jacket temperature (°C),LED temperature (°C),Box temperature (°C),Sample RH (%),Span deviation,Mass concentration (μg/m³),Mass concentration (μg/m³),Mass concentration (μg/m³)
DateTimeUTC,F1_M11,P_M11,Q1_M11,Q2_M11,T1_M11,T2_M11,T3_M11,T4_M11,T5_M11,U1_M11,ZSPAN_M11,X0_M11,X2_M11,X1_M11
2021-10-05 09:00:00,,0832.1,5.00,0.00,30.0,29.2,00.0,39.2,31.8,11.8,0001.1,0012.58,0004.54,0003.61
2021-10-05 09:01:00,,0832.1,5.00,0.00,30.0,29.2,00.0,39.2,31.8,11.9,0001.5,0013.14,0004.58,0003.62
2021-10-05 09:02:00,,0832.1,5.00,0.00,30.0,29.2,00.0,39.2,31.7,11.9,0001.6,0012.98,0004.61,0003.62
2021-10-05 09:03:00,,0832.1,5.00,0.00,30.0,29.2,00.0,39.2,31.8,11.9,0001.3,0012.92,0004.60,0003.63
2021-10-05 09:04:00,,0832.1,5.01,0.00,30.0,29.1,00.0,39.2,31.7,11.9,0002.1,0012.57,0004.55,0003.63
2021-10-05 09:05:00,,0832.1,4.99,0.00,30.0,29.1,00.0,39.2,31.7,12.0,0001.8,0011.61,0004.54,0003.63
2021-10-05 09:06:00,,0832.1,4.99,0.00,30.0,29.1,00.0,39.2,31.7,12.0,0002.0,0011.75,0004.53,0003.63
2021-10-05 09:07:00,,0832.0,5.01,0.00,29.9,29.1,00.0,39.1,31.7,12.0,0002.1,0011.67,0004.53,0003.63
2021-10-05 09:08:00,,0832.1,5.01,0.00,29.9,29.0,00.0,39.1,31.6,11.9,0002.0,0012.01,0004.56,0003.65
2021-10-05 09:09:00,,0832.1,4.99,0.00,29.9,29.0,00.0,39.1,31.7,11.9,0000.0,0011.73,0004.55,0003.64
2021-10-05 09:10:00,,0832.1,4.99,0.00,29.9,29.0,00.0,39.1,31.6,11.9,0000.0,0011.19,0004.53,0003.64
2021-10-05 09:11:00,,0832.1,5.01,0.00,29.9,29.0,00.0,39.1,31.6,11.9,0000.0,0010.72,0004.53,0003.64
2021-10-05 09:12:00,,0832.1,4.99,0.00,29.9,29.0,00.0,39.1,31.6,11.8,0000.0,0010.70,0004.51,0003.64
2021-10-05 09:13:00,,0832.1,5.00,0.00,29.9,29.0,00.0,39.1,31.6,11.8,0000.3,0011.34,0004.48,0003.62
2021-10-05 09:14:00,,0832.1,5.01,0.00,29.9,29.0,00.0,39.1,31.6,11.8,0001.1,0012.09,0004.51,0003.62
2021-10-05 09:15:00,,0832.0,5.00,0.00,29.9,29.0,00.0,39.1,31.6,11.7,0001.4,0012.85,0004.48,0003.62
2021-10-05 09:16:00,,0832.0,5.00,0.00,29.8,29.0,00.0,39.1,31.6,11.7,0002.0,0012.82,0004.46,0003.61
2021-10-05 09:17:00,,0831.9,4.99,0.00,29.8,29.0,00.0,39.0,31.5,11.7,0001.9,0012.98,0004.46,0003.61
2021-10-05 09:18:00,,0832.0,5.00,0.00,29.8,29.0,00.0,39.0,31.5,11.6,0001.7,0012.79,0004.44,0003.60
2021-10-05 09:19:00,,0832.0,5.01,0.00,29.8,28.9,00.0,39.0,31.5,11.6,0001.1,0012.15,0004.37,0003.60
2021-10-05 09:20:00,,0831.9,5.00,0.00,29.8,28.9,00.0,39.0,31.5,11.6,0000.0,0012.03,0004.36,0003.60
2021-10-05 09:21:00,,0832.0,4.99,0.00,29.8,28.9,00.0,39.0,31.5,11.5,0000.0,0012.05,0004.38,0003.61
2021-10-05 09:22:00,,0832.0,5.00,0.00,29.8,28.9,00.0,39.0,31.5,11.5,0000.3,0012.16,0004.40,0003.62
2021-10-05 09:23:00,,0832.0,5.00,0.00,29.8,28.9,00.0,39.0,31.5,11.4,0000.4,0012.22,0004.41,0003.60
2021-10-05 09:24:00,,0832.0,4.99,0.00,29.8,28.9,00.0,39.0,31.5,11.4,0000.8,0011.71,0004.44,0003.61
2021-10-05 09:25:00,,0832.0,4.98,0.00,29.8,28.9,00.0,39.0,31.5,11.4,0000.0,0011.24,0004.44,0003.59
2021-10-05 09:26:00,,0832.0,5.00,0.00,29.8,29.0,00.0,39.0,31.5,11.3,0000.0,0010.91,0004.44,0003.57
2021-10-05 09:27:00,,0832.0,4.99,0.00,29.8,29.0,00.0,38.9,31.5,11.2,0000.0,0011.31,0004.46,0003.57
2021-10-05 09:28:00,,0832.0,5.01,0.00,29.8,29.0,00.0,38.9,31.5,11.3,0000.0,0011.36,0004.45,0003.55
2021-10-05 09:29:00,,0831.9,4.99,0.00,29.8,29.0,00.0,38.9,31.5,11.3,0000.0,0012.11,0004.46,0003.55
2021-10-05 09:30:00,,0831.9,5.00,0.00,29.8,29.0,00.0,38.9,31.5,11.2,0000.0,0012.17,0004.47,0003.54
2021-10-05 09:31:00,,0831.8,4.99,0.00,29.8,29.0,00.0,38.9,31.5,11.1,0000.0,0012.15,0004.44,0003.52
2021-10-05 09:32:00,,0831.8,5.01,0.00,29.8,29.0,00.0,38.9,31.5,11.1,0000.0,0012.12,0004.43,0003.51
2021-10-05 09:33:00,,0831.8,5.02,0.00,29.8,29.0,00.0,38.9,31.5,11.2,0000.2,0012.28,0004.39,0003.50
2021-10-05 09:34:00,,0831.7,4.99,0.00,29.8,28.9,00.0,38.9,31.5,11.0,0000.3,0012.69,0004.34,0003.49
2021-10-05 09:35:00,,0831.7,5.01,0.00,29.8,29.0,00.0,38.9,31.5,11.0,0000.6,0012.96,0004.26,0003.48
2021-10-05 09:36:00,,0831.7,5.00,0.00,29.8,29.0,00.0,38.9,31.5,10.9,0000.0,0012.63,0004.22,0003.46
2021-10-05 09:37:00,,0831.7,5.00,0.00,29.8,29.0,00.0,38.9,31.5,10.9,0000.0,0012.24,0004.19,0003.45
2021-10-05 09:38:00,,0831.8,5.01,0.00,29.8,29.0,00.0,38.9,31.6,10.9,0000.8,0012.29,0004.18,0003.44
2021-10-05 09:39:00,,0831.7,4.99,0.00,29.8,29.0,00.0,38.9,31.5,10.9,0000.0,0011.61,0004.11,0003.41
2021-10-05 09:40:00,,0831.8,5.00,0.00,29.9,29.1,00.0,38.9,31.6,10.9,0000.0,0010.60,0004.05,0003.39
2021-10-05 09:41:00,,0831.8,5.01,0.00,29.9,29.1,00.0,38.9,31.6,10.9,0000.0,0010.60,0004.04,0003.38
2021-10-05 09:42:00,,0831.8,4.99,0.00,29.9,29.1,00.0,38.9,31.6,10.9,0000.0,0010.51,0004.01,0003.37
2021-10-05 09:43:00,,0831.8,5.01,0.00,29.9,29.1,00.0,38.9,31.6,11.0,0001.3,0010.67,0003.98,0003.35
2021-10-05 09:44:00,,0831.7,4.99,0.00,29.9,29.0,00.0,38.9,31.6,11.0,0000.3,0010.57,0003.96,0003.34
2021-10-05 09:45:00,,0831.7,5.01,0.00,29.9,29.1,00.0,39.0,31.6,11.0,0000.0,0010.30,0003.95,0003.34
2021-10-05 09:46:00,,0831.7,5.00,0.00,29.9,29.1,00.0,39.0,31.6,10.9,0000.0,0010.08,0003.95,0003.33
2021-10-05 09:47:00,,0831.7,5.01,0.00,29.9,29.1,00.0,39.0,31.7,10.9,0000.0,0010.67,0003.96,0003.34
2021-10-05 09:48:00,,0831.7,5.00,0.00,29.9,29.1,00.0,39.0,31.7,10.9,0000.0,0010.74,0003.96,0003.35
2021-10-05 09:49:00,,0831.7,5.02,0.00,29.9,29.1,00.0,39.0,31.7,10.9,0000.0,0010.57,0003.94,0003.35
2021-10-05 09:50:00,,0831.7,4.99,0.00,29.9,29.1,00.0,39.0,31.7,10.8,0000.2,0011.44,0003.98,0003.36
2021-10-05 09:51:00,,0831.8,5.01,0.00,30.0,29.1,00.0,39.0,31.7,10.8,0000.4,0012.17,0004.00,0003.36
2021-10-05 09:52:00,,0831.7,5.00,0.00,30.0,29.1,00.0,39.0,31.7,10.8,0000.0,0012.14,0004.00,0003.36
2021-10-05 09:53:00,,0831.7,5.00,0.00,30.0,29.1,00.0,39.0,31.7,10.7,0000.0,0012.13,0004.01,0003.37
2021-10-05 09:54:00,,0831.7,5.01,0.00,30.0,29.1,00.0,39.0,31.7,10.7,0000.0,0012.03,0004.03,0003.37
2021-10-05 09:55:00,,0831.7,4.99,0.00,30.0,29.1,00.0,39.0,31.7,10.7,0000.2,0012.62,0004.01,0003.36
2021-10-05 09:56:00,,0831.7,5.00,0.00,30.0,29.1,00.0,39.0,31.7,10.7,0001.6,0012.44,0004.02,0003.35
2021-10-05 09:57:00,,0831.7,5.00,0.00,30.0,29.1,00.0,39.1,31.7,10.8,0001.6,0013.37,0004.05,0003.34
2021-10-05 09:58:00,,0831.7,5.01,0.00,30.0,29.1,00.0,39.1,31.8,10.8,0001.5,0012.70,0004.05,0003.34
2021-10-05 09:59:00,,0831.7,4.98,0.00,30.0,29.1,00.0,39.1,31.7,10.9,0001.5,0012.61,0004.05,0003.33
